Location: Anare
(10.6236°N, 66.6506°W)
Time: 16:34:02
(UTC+00:00)

USA 229 DEB - Pass Details

Date: 18 April 2024
Orbit: 892 x 1319 km, 63.4° (Epoch: 15 May)

Event Time Altitude Azimuth Distance (km) Brightness Sun altitude
Rises 23:15:17 0° 187° (S) 3,510 6.4 -9.8°
Reaches altitude 10° 23:17:56 10° 180° (S) 2,556 5.6 -10.5°
Maximum altitude 23:23:22 40° 112° (ESE) 1,294 3.7 -11.8°
Drops below altitude 10° 23:28:56 10° 44° (NE) 2,610 5.5 -13.1°
Sets 23:31:39 0° 37° (NE) 3,593 6.2 -13.7°
